Simultaneous Nadir Overpasses (SNOs) Predictions

Prediction of SNOs between AQUA and METOP-C Satellite Orbit:

Table of predicted SNOs for the next 14.0 days since TLE Epoch: 11/20/2021
Index Date (AQUA) Time (AQUA) Lat,Lon (AQUA) SZA (AQUA ) Date (METOP-C) Time (METOP-C) Lat,Lon (METOP-C) SZA (METOP-C ) Distance(km) Time Diff (sec)
1 11/20/2021 08:06:06 73.70, 52.97 93.39 11/20/2021 08:05:24 73.69, 52.86 93.38 3.65 42
2 11/20/2021 08:55:33 -73.79,-139.58 86.52 11/20/2021 08:56:04 -73.78,-139.60 86.53 1.25 31
3 11/23/2021 03:40:22 73.73, 119.35 94.02 11/23/2021 03:39:46 73.75, 119.41 94.05 3.11 36
4 11/23/2021 04:29:49 -73.82, -73.19 85.89 11/23/2021 04:30:27 -73.79, -73.18 85.91 3.05 38
5 11/25/2021 23:14:36 73.72,-174.17 94.57 11/25/2021 23:14:09 73.71,-174.28 94.57 3.50 27
6 11/26/2021 00:04:03 -73.80, -6.71 85.35 11/26/2021 00:04:49 -73.79, -6.77 85.35 1.99 46
7 11/28/2021 17:59:12 -73.11, 85.90 85.55 11/28/2021 17:58:05 -73.06, 83.33 85.56 83.33 67
8 11/28/2021 18:48:52 73.76,-107.83 95.13 11/28/2021 18:48:31 73.76,-107.75 95.13 2.63 21
9 11/28/2021 19:38:19 -73.84, 59.64 84.79 11/28/2021 19:39:11 -73.84, 59.76 84.80 3.60 52
10 12/01/2021 13:33:32 -73.38, 151.80 84.82 12/01/2021 13:32:22 -73.36, 150.39 84.82 45.03 70
11 12/01/2021 14:23:07 73.77, -41.40 95.59 12/01/2021 14:22:54 73.76, -41.34 95.59 2.03 13
12 12/01/2021 15:12:34 -73.84, 126.08 84.34 12/01/2021 15:13:34 -73.83, 126.15 84.35 2.45 60



Historial Predications of SNOs between AQUA and METOP-C
